COSMOS 1275 DEB, 12650

Orbit data source: Space-Track

COSMOS 1275 DEB, 12650 is space debris in LEO originally from a launch on Thu, 04 Jun 1981 UTC launched from the Plesetsk Missile And Space Complex (PKMTR). Debris objects in space refer to the collection of defunct objects orbiting the Earth. Examples of debris include non-operational satellites, rocket bodies, and fragments generated from explosions, collisions, or faulty payload assembly.

Loading next visibility...
Identifier
12650, 1981-053E
Orbit
LEO
Country
Flag of CISCIS
Related business
Manufacturer
Unknown
Mission
Spacecraft
Bus & Motor
Unknown
Mass
Unknown
Launch date (UTC)
1981-06-04 (44 years ago)
Launch vehicle
Unknown
Launch site
Plesetsk Missile And Space Complex (PKMTR)
Object type
Payload
Rocket body
Debris
Shape & HBR
Unknown shape, 0.3 m
Radar Cross Section
Medium (>0.1 m² and <1 m²)

Expand to show TLE details & history
Last TLE update: 8 hours ago

TLE from 8 hours ago
0 COSMOS 1275 DEB
1 12650U 81053E   25291.12576310  .00000741  00000-0  67910-3 0  9993
2 12650  82.9361  52.7949 0064975 147.5833 304.9622 13.80757120217834
Epoch: 2025-10-18T03:01Z
TLE epoch observation values (Epoch: 2025-10-18T03:01:05.931Z)
Latitude
82.71505°
Longitude
86.01875°
Altitude
947.658 km
Speed
7.398 km/s
True Right ascension
10h 32m 37s
True Declination
82° 40' 22"
Sunlit
Object was in daylight at epoch
Visualization orbit readout
Latitude
Unknown
Longitude
Unknown
Altitude
Unknown
Speed
Unknown
Apparent Right ascension
Unknown
Apparent Declination
Unknown
Sunlit
N/A
Visualization observer readout
Local Sidereal Time
05:55:49
Azimuth
Unknown
Elevation
Unknown
Doppler factor
Unknown
Orbital elements
Apogee altitude
1,006.012 km
Perigee altitude
910.675 km
Semi-major axis
7,336.48 km
Eccentricity
0.0065
Inclination
82.9361°
RAAN
52.7949°
Arg. of periapsis
147.5833°
True anomaly
304.34917°
Mean anomaly
304.9622°
Eccentric anomaly
304.65597°
Mean motion
3.45391 °/min
Orbital period
104.23 mins
BSTAR
0.0006791
Loading maneuver chart data...
Computing Atmospheric mass density...

Documentation

Showing up to 5 results
|